Dewpoint
58 59 60 62 62 63 63 63 64 65 65 65 65 65 65 65 65 65 65 64 65 65 63 63 63 61 61 61 61 62 63 63
58 58 59 62 62 62 63 63 63 64 64 63 63 63 64 64 64 65 65 65 65 65 65 63 63 62 61 61 61 61 61 63
57 59 58 59 62 62 63 63 63 63 63 62 62 62 63 63 64 65 66 66 66 65 65 64 63 62 61 61 61 61 61 62
44 55 58 58 59 62 62 63 63 63 63 63 64 64 64 65 64 65 66 66 66 66 65 65 63 62 61 61 61 61 60 60
28 38 52 57 59 61 63 63 64 64 63 64 64 63 63 64 65 66 66 67 66 66 66 65 64 63 62 61 62 61 61 60
28 29 36 54 57 61 62 63 64 64 64 64 64 64 63 64 65 66 66 67 67 66 66 65 64 63 62 62 62 61 61 61
28 29 32 45 53 57 62 63 63 65 64 64 64 64 64 64 65 65 66 66 67 66 66 65 65 64 62 62 62 62 62 61
29 28 29 41 49 54 60 63 63 65 65 64 64 64 64 64 64 65 65 65 66 66 66 65 65 64 63 62 62 62 62 61
28 29 29 34 48 54 59 62 62 65 65 65 64 64 64 64 64 64 64 64 65 66 65 65 65 65 64 63 62 62 62 62
28 29 30 31 38 53 58 61 62 63 65 65 65 64 63 63 63 64 64 64 64 65 65 65 64 64 64 63 63 62 61 61
31 31 31 32 35 46 56 60 61 62 63 65 65 65 64 63 63 63 64 63 63 64 65 64 64 63 63 63 63 59 59 54
34 33 34 35 37 41 53 58 60 61 62 64 64 65 65 64 63 63 63 63 63 64 64 64 63 63 63 63 61 57 57 52
36 36 35 35 36 40 49 57 59 60 61 63 64 64 64 64 64 63 63 63 63 63 64 63 63 63 63 62 59 58 56 52
39 44 41 36 35 37 45 57 59 60 61 62 64 64 64 64 63 63 63 63 62 63 63 63 63 63 62 61 59 57 55 51
38 39 41 52 43 39 40 51 59 61 61 62 63 64 64 64 64 63 62 62 62 62 63 63 63 62 61 59 56 54 51 50
39 38 36 39 56 54 48 44 51 60 61 62 63 64 64 64 63 63 62 62 62 62 63 63 62 60 59 56 54 53 51 49
41 40 38 34 43 56 56 55 52 53 60 62 63 63 63 63 63 63 62 62 62 62 62 61 59 58 48 47 51 52 50 48
43 41 41 37 36 57 57 57 57 56 58 61 63 63 63 63 63 62 62 62 62 62 61 60 58 57 45 46 46 51 49 48
42 42 40 41 38 49 56 56 56 57 59 60 61 63 63 63 63 62 62 62 61 60 59 57 56 53 45 45 45 50 48 45
Lifted_Index
-3 -3 -4 -4 -4 -4 -3 -3 -3 -2 -2 -2 -2 -2 -2 -2 -2 -3 -3 -3 -3 -3 -4 -4 -4 -3 -3 -3 -3 -3 -3 -4
-3 -3 -3 -4 -4 -4 -4 -4 -4 -3 -3 -2 -2 -2 -2 -2 -3 -3 -3 -3 -3 -3 -4 -4 -4 -4 -3 -3 -3 -3 -4 -4
-3 -3 -3 -4 -4 -4 -4 -4 -5 -4 -4 -3 -2 -2 -2 -2 -3 -3 -4 -4 -4 -4 -4 -4 -5 -4 -4 -3 -3 -3 -4 -4
-1 -2 -3 -4 -4 -4 -4 -4 -5 -5 -5 -5 -3 -3 -3 -3 -3 -4 -4 -5 -4 -4 -4 -5 -5 -5 -4 -4 -3 -3 -3 -3
2 1 -1 -3 -3 -4 -4 -4 -5 -6 -6 -6 -5 -4 -3 -4 -4 -5 -5 -5 -5 -5 -5 -5 -5 -5 -5 -4 -4 -3 -3 -3
3 3 1 -1 -2 -3 -4 -4 -5 -5 -6 -6 -5 -5 -4 -4 -5 -5 -5 -6 -6 -6 -6 -6 -5 -5 -5 -5 -4 -4 -3 -3
3 3 3 1 -1 -3 -4 -4 -4 -5 -5 -6 -6 -5 -5 -5 -5 -5 -5 -6 -6 -6 -6 -6 -6 -6 -6 -5 -5 -4 -4 -3
3 3 3 2 0 -2 -4 -4 -4 -5 -5 -5 -6 -6 -5 -5 -5 -5 -6 -6 -6 -6 -7 -7 -7 -6 -6 -6 -5 -4 -4 -4
3 3 3 2 1 -1 -3 -4 -4 -4 -5 -5 -6 -6 -6 -5 -5 -5 -5 -6 -6 -6 -6 -7 -7 -7 -6 -6 -5 -5 -4 -4
3 3 3 3 2 -0 -3 -4 -4 -4 -4 -5 -5 -5 -5 -5 -5 -5 -5 -5 -5 -5 -6 -6 -7 -7 -6 -5 -5 -5 -4 -4
3 3 3 3 2 1 -1 -3 -3 -4 -4 -5 -5 -5 -5 -5 -5 -5 -5 -5 -5 -5 -5 -6 -6 -6 -6 -5 -5 -5 -4 -4
3 3 3 3 3 2 0 -2 -3 -3 -4 -4 -4 -5 -5 -5 -5 -5 -5 -5 -4 -4 -5 -5 -5 -5 -5 -5 -5 -5 -5 -4
4 3 3 3 3 3 1 -1 -3 -3 -4 -4 -4 -4 -4 -4 -5 -6 -6 -5 -5 -4 -4 -5 -5 -5 -5 -5 -5 -5 -5 -4
4 3 3 3 3 3 2 -0 -2 -3 -4 -4 -4 -4 -4 -4 -5 -6 -6 -6 -5 -5 -5 -5 -5 -5 -5 -5 -5 -5 -5 -4
3 3 3 2 2 3 3 1 -1 -3 -4 -4 -4 -4 -4 -4 -5 -6 -6 -6 -5 -5 -5 -5 -5 -4 -4 -4 -4 -4 -4 -4
3 3 2 1 0 1 3 3 1 -2 -4 -4 -4 -4 -4 -4 -5 -5 -5 -6 -5 -5 -5 -4 -4 -4 -4 -3 -3 -3 -3 -3
3 3 2 1 -0 -0 1 2 2 0 -3 -4 -5 -5 -4 -4 -5 -5 -5 -5 -5 -5 -4 -4 -3 -3 -3 -3 -3 -3 -3 -3
4 4 3 2 1 -1 -1 -0 1 1 -1 -4 -5 -5 -4 -4 -4 -5 -5 -5 -5 -4 -4 -4 -3 -3 -2 -2 -2 -2 -2 -2
5 5 4 3 2 -0 -2 -2 -1 0 -1 -3 -4 -5 -4 -4 -4 -4 -4 -4 -4 -4 -4 -3 -3 -3 -2 -2 -2 -2 -2 -1